Regional Weather Roundup
Issued by NWS Wakefield, VA

Home | Current Version | Previous Version | Graphics & Text | Print | Product List | Glossary On
Versions: 1 2 3 4 5 6 7 8 9 10 11 12 13 14 15 16 17 18 19 20 21 22 23 24 25 26 27 28
000
ASUS41 KAKQ 120915
RWRAKQ

REGIONAL WEATHER ROUNDUP
NATIONAL WEATHER SERVICE WAKEFIELD VA
400 AM EST TUE DEC 12 2017

Note: "fair" indicates few or no clouds below 12,000 feet with no
significant weather and/or obstructions to visibility. * = Denotes
station may not report precipitation (e.g., rain,snow,etc.),
thunder or fog.

VAZ042-051-052>054-056-121000-
NORTHERN VIRGINIA

CITY           SKY/WX    TMP DP  RH WIND       PRES   REMARKS
WASH NATIONAL  CLOUDY    43  31  62 S13       29.70F
DULLES         CLOUDY    39  31  72 S9        29.68F
FORT BELVOIR   CLOUDY    41  30  66 SE6       29.70F
QUANTICO       CLOUDY    43  32  65 SW9       29.71F
FREDERICKSBRG* CLOUDY    40  32  73 S7        29.70F
STAFFORD*      CLOUDY    38  30  74 S3        29.74F
WARRENTON      CLOUDY    41  28  60 S6        29.68F
CULPEPER*      MOCLDY    40  29  64 S7        29.69F
MANASSAS*      CLOUDY    38  30  73 S6        29.69F
LEESBURG*      CLOUDY    39  32  75 S9        29.67F
WINCHESTER     CLOUDY    36  28  75 S5        29.62F
FRONT ROYAL*   CLOUDY    39  30  70 MISG      29.62F
LURAY*         PTSUNNY   43  32  65 SW8       29.63F
$$

VAZ048-049-060>072-079>083-121000-
CENTRAL AND SOUTH CENTRAL VIRGINIA

CITY           SKY/WX    TMP DP  RH WIND       PRES   REMARKS
RICHMOND       CLOUDY    40  31  70 S12       29.72F
CHESTERFIELD*  NOT AVBL
PETERSBURG*    CLOUDY    36  28  75 SW3       29.75F
HANOVER        CLOUDY    39  31  72 S9        29.74F
TAPPAHANNOCK*    N/A    N/A N/A N/A MISG        N/A
QUINTON*       FAIR      38  31  77 S5        29.75F
CHARLOTTSVILLE CLOUDY    38  29  70 S7        29.67F
GORDONSVILLE*  CLOUDY    36  30  80 SW3       29.68F
ORANGE*        MOCLDY    34  30  86 CALM      29.69F
LOUISA*        CLOUDY    39  29  68 S6        29.73F
BUMPASS*       FAIR      40  29  65 S5        29.70F
FARMVILLE*     CLOUDY    39  33  79 SW7       29.71F
CREWE*         FAIR      39  32  76 S5        29.73F
FORT PICKETT*  NOT AVBL
CHASE CITY*    FAIR      39  31  72 CALM      29.74F
CLARKSVILLE*   FAIR      39  32  75 S8        29.74F
SOUTH HILL*    CLOUDY    38  32  79 S9        29.80F
LAWRENCEVILLE* FAIR      39  31  71 S3        29.75F
EMPORIA*       PTCLDY    36  30  80 SE5       29.78F
$$

VAZ088>098-121000-
SOUTHEAST VIRGINIA

CITY           SKY/WX    TMP DP  RH WIND       PRES   REMARKS
NORFOLK        MOCLDY    41  33  73 S9        29.80F
VIRGINIA BEACH MOCLDY    41  31  67 S9        29.81F
NORFOLK NAVAL  MOCLDY    42  31  64 S8G17     29.81F
WEST POINT*    CLOUDY   N/A N/A N/A S5        29.78F
SALUDA*        FAIR      41  33  73 S9        29.76F
NEWPORT NEWS   MOCLDY    42  32  67 S8        29.79F
LANGLEY AFB    CLOUDY    42  32  68 S6        29.79F
FORT EUSTIS    CLOUDY    43  31  64 S7        29.76F
WILLIAMSBURG*  PTCLDY    43  34  70 S10G16    29.78F
HR EXEC AP*    FAIR      36  32  85 S7        29.81F
FRANKLIN*      CLOUDY    37  30  77 S7        29.81F
US460-WAKEFLD  CLOUDY    38  31  76 S5        29.78F
$$

VAZ020-022-025-037-045-121000-
WEST CENTRAL AND SOUTHWEST VIRGINIA

CITY           SKY/WX    TMP DP  RH WIND       PRES   REMARKS
STAUNTON*      MOCLDY    32  27  82 S3        29.66F
WAYNESBORO*    CLOUDY    42  29  61 SW6       29.64F
HOT SPRINGS VA CLOUDY    39  24  54 W17G24    29.62F
LYNCHBURG      CLOUDY    36  29  75 SW5       29.70F
DANVILLE       MOCLDY    34  30  85 SW5       29.74F
SOUTH BOSTON*  FAIR      38  30  72 SW3       29.74F
MARTINSVILLE   CLOUDY    29  27  94 CALM      29.75F
ROANOKE        CLOUDY    40  29  64 VRB3      29.70F
BLACKSBURG     PTCLDY    38  29  69 W3        29.72F
DUBLIN*        CLOUDY    41  30  66 SW15      29.70F
MARION*        CLOUDY    40  28  61 W22G29    29.72F
HILLSVILLE*    CLEAR     37  27  69 SW3       29.70S
RICHLANDS*     FAIR      40  13  32 SW8       29.73F
WISE*          CLOUDY    41  32  70 W6        29.76S
ABINGDON*      CLOUDY    39  31  72 W5        29.76F
$$

MDZ021>025-VAZ099-100-121000-
SOUTHERN MARYLAND AND THE DELMARVA PENINSULA

CITY           SKY/WX    TMP DP  RH WIND       PRES   REMARKS
PATUXENT RIVER CLOUDY    43  33  68 S7        29.74F
BAY BRIDGE APT CLOUDY    45  36  70 S13       29.71F
LEONARDTOWN    PTCLDY    41  32  70 S7        29.75F
DOVER          PTCLDY    39  37  91 SE13      29.74F
GEORGETOWN     CLOUDY    41  34  76 S9        29.78F
EASTON         CLOUDY    43  37  78 S12       29.77F
CAMBRIDGE      PTCLDY    43  37  81 S10G22    29.74F
SALISBURY      CLOUDY    40  36  86 S10       29.78F
OCEAN CITY     CLOUDY    46  39  76 SW8       29.80F
WALLOPS ISLAND CLOUDY    45  38  76 S14       29.80F
ACCOMACK*      CLOUDY    45  37  72 S9        29.79F
$$

NCZ012>017-030>032-121000-
NORTH CENTRAL AND EASTERN NORTH CAROLINA

CITY           SKY/WX    TMP DP  RH WIND       PRES   REMARKS
ROANOKE RAPIDS FAIR      37  32  81 CALM      29.78F
RALEIGH        CLOUDY    41  33  73 SW10      29.78F
ELIZABETH CITY CLEAR     40  37  89 S7        29.83F
AHOSKIE*       CLOUDY    33  30  87 S5        29.82F
EDENTON*       CLEAR     42  36  78 S8        29.85F
CURRITUCK*     CLEAR     38  37  93 S3        29.84F
KILL DEVIL HLS CLEAR     43  38  82 SW5       29.85F
MANTEO         CLEAR     43  37  78 W6        29.87F
CAPE HATTERAS  CLEAR     47  42  83 W7        29.87F
TARBORO*       NOT AVBL
GOLDSBORO      CLEAR     40  33  77 S7        29.81F
WASHINGTON     CLEAR     38  32  78 S5        29.85F
GREENVILLE     CLEAR     37  32  81 S9        29.86F
NEW BERN       CLEAR     38  35  89 S7        29.87F
WILMINGTON     CLEAR     48  41  76 SW9       29.88F
$$

VAZ048-121000-
ELSEWHERE

CITY           SKY/WX    TMP DP  RH WIND       PRES   REMARKS
HARRISBURG PA  CLOUDY    37  31  78 SE8       29.66F
BALTIMORE      CLOUDY    41  32  70 S3        29.70F
ANNAPOLIS      CLOUDY    44  36  73 S14       29.70F
ANDREWS AFB    CLOUDY    40  31  69 S9        29.69F
PHILADELPHIA   CLOUDY    42  33  70 S10       29.75F
HENDERSON NC   CLOUDY    37  29  72 S9        29.76F
GREENSBORO     CLOUDY    38  33  82 SW8       29.73F
ROCKY MOUNT    CLOUDY    38  33  82 S6        29.81F
$$

VAZ100-121000-
MARINE

STATION/POSITION TIME  TEMP    WIND        PRES    WAVE   SWELL
                       AIR SEA DIR/SP/G            HT/PER HT/PER
                 (UTC) (F)     (DEG/KT/KT) (MB)    (FT/S) (FT/S)
BRANDYWINE LGT   0842   47     190/ 21/ 25 1008.9F
CAPE MAY NJ      0848   47 44  190/ 10/ 15 1008.4F
LEWES DE         0848   44 47  170/  7/  9 1008.4F
15NM E FENWICK I 0850   51 54  190/ 19/ 23 1009.4F   4/ 4   2/ 9
OCEAN-CITY-INLET 0848   47 49  230/ 10/ 12 1009.5F
WACHAPREAGUE VA  0848   44 43  210/  7/ 10 1009.2F
THOMAS POINT MD  0900   45 47  180/ 24/ 26   N/A
GOOSES REEF MD   0900   45 47  180/ 16/ 19 1006.9    2/ 3
COVE POINT MD    0848   44     210/ 18/ 20 1007.3F
SOLOMONS ISLAND  0848   44 48  190/ 13/ 15 1006.7F
BISHOPS HEAD MD  0848   45 41  170/ 14/ 15 1007.6F
PINEY POINT MD   0848          200/ 11/ 13   N/A
POTOMAC MD       0900   46 48  180/ 14/ 17 1006.6    2/ 3
CAMBRIDGE MD     0842   43 45              1007.7F
LEWISETTA VA     0848   43 44  200/ 10/ 11 1007.2F
RAPPAHANNOCK LGT 0848          180/ 19/ 21 1009.1F
STINGRAY PT      0900   45 49  200/ 14/ 16 1008.1    1/ 3
YORK RVR RNG VA  0848   44     190/ 13/ 16 1008.9F
YORKTOWN VA      0848   43 50  180/  5/  6 1008.1F
JAMESTOWN VA     0900      47  190/ 10/ 12   N/A     1
DOMINION TERM VA 0848   42     170/ 10/ 12 1009.1F
KIPTOPEKE VA     0848      48  200/ 14/ 16   N/A
CAPE HENRY VA    0848   43     190/  7/ 11   N/A
WILLOUBY STN VA  0842                      1008.7F
S CRANEY ISL VA  0848   42     190/ 10/ 12 1009.2F
CAPE HENRY BUOY  0900      53                N/A     3/ 4
1ST LANDING BUOY 0900   44 50  210/ 16/ 19 1009.4    1/ 2
CAPE CHARLES BUO 0851      53                N/A     3/ 4
64NM E OF VA BCH 0850   55 60  210/ 14/ 17 1010.3F   2/ 8   2/ 8
DUCK PIER NC     0848   45 55  210/ 10/ 12 1009.8F
44100 DUCK FRF   0745      55                N/A     2/ 8
44056 DUCK FRF   0900      53                N/A     2/10
OREGON INLET NC  0842   47 46  230/ 12/ 14 1011.1F
HATTERAS NC      0848   48 54  240/  8/ 13 1011.1F
DIAMOND SHLS NC  0850   61 76  240/ 21/ 25 1011.5F   3/ 8   2/ 8
CAPE LOOKOUT NC  0900          240/  9/ 13 1011.9F
$$




USA.gov is the U.S. government's official web portal to all federal, state and local government web resources and services.